EW0920 Weather Reports


time (UTC)temp
F
wind
direction
speed
knots
gust
knots
rain 1hr
in
rain 24hr
in
rain mn
in
humidity
%
barometer
mb
20260905114818 70 298 0.0 0.0 0.12 1.17 1.17 99 1017.0
20260905114316 70 291 0.0 0.0 0.05 1.16 1.16 99 1017.1
20260905113816 70 299 0.0 0.9 0.07 1.15 1.15 99 1016.6
20260905113311 70 291 0.0 0.0 0.07 1.15 1.15 99 1016.7
20260905111001 70 278 0.0 0.9 1.51 0.94 0.94 99 1018.0
20260905110501 70 278 0.0 0.9 1.51 0.94 0.94 99 1018.0
20260905110000 70 331 0.0 1.7 1.13 0.87 0.87 99 1018.1
20260905105455 71 321 0.9 1.7 0.47 0.76 0.76 99 1017.7
20260905104954 70 313 0.9 0.9 0.00 0.68 0.68 99 1016.3
20260905104450 70 321 0.0 0.0 0.00 0.68 0.68 99 1015.2
20260905103945 70 314 0.0 0.0 0.00 0.68 0.68 99 1015.0
20260905103440 71 313 0.0 0.0 0.00 0.68 0.68 99 1015.2
20260905102937 71 339 0.0 0.0 0.14 0.68 0.68 99 1015.3
20260905102432 71 350 0.0 0.0 0.24 0.67 0.67 99 1015.0
20260905101928 71 345 0.0 0.0 0.59 0.65 0.65 99 1015.4
20260905101426 71 39 0.0 0.9 1.13 0.63 0.63 99 1015.7
20260905100921 71 339 0.0 1.7 0.71 0.53 0.53 99 1016.1
20260905100417 71 336 0.9 0.9 0.31 0.44 0.44 99 1016.3
20260905095915 72 280 0.0 0.9 0.24 0.41 0.41 99 1015.8
20260905095405 72 297 0.0 0.9 0.97 0.39 0.39 99 1015.8
20260905094904 73 329 0.9 0.9 1.72 0.36 0.36 99 1015.9
20260905094359 73 299 0.0 1.7 1.21 0.21 0.21 99 1015.7
20260905093859 73 310 0.0 1.7 0.35 0.06 0.06 99 1015.6
20260905093354 73 254 0.0 0.0 0.05 0.01 0.01 99 1015.3
20260905092851 73 296 0.0 0.0 0.00 0.00 0.00 99 1015.1
20260905092351 73 311 0.0 0.0 0.00 0.00 0.00 99 1014.9
20260905091845 72 309 0.0 0.0 0.00 0.00 0.00 99 1014.7
20260905091345 72 309 0.0 0.0 0.00 0.00 0.00 99 1014.4
20260905090844 72 309 0.0 0.0 0.00 0.00 0.00 99 1014.2
20260905090340 72 309 0.0 0.0 0.00 0.00 0.00 99 1014.3
20260905085839 72 315 0.0 0.0 0.00 0.00 0.00 99 1014.4
20260905085334 72 315 0.0 0.0 0.00 0.00 0.00 99 1014.4
20260905084830 72 315 0.0 0.0 0.00 0.00 0.00 99 1014.5
20260905084328 72 317 0.0 0.0 0.00 0.00 0.00 99 1014.6
20260905083824 72 307 0.0 0.0 0.00 0.00 0.00 99 1014.4
20260905083320 72 307 0.0 0.0 0.00 0.00 0.00 99 1014.3
20260905082815 72 318 0.0 0.0 0.00 0.00 0.00 99 1014.6
20260905082311 73 318 0.0 0.0 0.00 0.00 0.00 99 1014.7
20260905081806 73 318 0.0 0.0 0.00 0.00 0.00 99 1014.7
20260905081301 73 318 0.0 0.0 0.00 0.00 0.00 99 1014.5
20260905080759 73 318 0.0 0.0 0.00 0.00 0.00 99 1014.6
20260905080254 73 318 0.0 0.0 0.00 0.00 0.00 99 1014.8
20260905075752 73 318 0.0 0.0 0.00 0.00 0.00 99 1014.5
20260905075247 73 318 0.0 0.0 0.00 0.00 0.00 99 1014.6
20260905074746 73 318 0.0 0.0 0.00 0.00 0.00 99 1014.7
20260905074242 73 318 0.0 0.0 0.00 0.00 0.00 99 1015.0
20260905073737 73 318 0.0 0.0 0.00 0.00 0.00 99 1015.0
20260905073233 73 329 0.0 0.0 0.00 0.00 0.00 99 1014.9
20260905072732 73 329 0.0 0.0 0.00 0.00 0.00 99 1014.8
20260905072228 73 329 0.0 0.9 0.00 0.00 0.00 99 1015.0
20260905071724 73 277 0.0 0.0 0.00 0.00 0.00 99 1014.8
20260905071220 73 273 0.0 0.0 0.00 0.00 0.00 99 1014.6
20260905070715 73 311 0.0 0.0 0.00 0.00 0.00 99 1014.5
20260905070211 73 312 0.0 0.0 0.00 0.00 0.00 99 1014.7
20260905065709 73 313 0.0 0.0 0.00 0.00 0.00 99 1014.8
20260905065203 73 313 0.0 0.0 0.00 0.00 0.00 99 1015.0
20260905064658 73 313 0.0 0.0 0.00 0.00 0.00 99 1015.0
20260905064149 73 313 0.0 0.0 0.00 0.00 0.00 99 1015.1
20260905063646 73 313 0.0 0.0 0.00 0.00 0.00 99 1015.2
20260905063143 73 313 0.0 0.0 0.00 0.00 0.00 99 1015.1
20260905062638 73 313 0.0 0.0 0.00 0.00 0.00 99 1015.3
20260905062132 73 307 0.0 0.0 0.00 0.00 0.00 99 1015.4
20260905061626 73 296 0.0 0.0 0.00 0.00 0.00 99 1015.4
20260905061121 73 303 0.0 0.0 0.00 0.00 0.00 99 1015.4
20260905060616 73 298 0.0 0.0 0.00 0.00 0.00 99 1015.6
20260905060113 73 307 0.0 0.0 0.00 0.00 0.00 99 1015.7
20260905055610 73 307 0.0 0.0 0.00 0.00 0.00 99 1015.9
20260905055105 73 307 0.0 0.0 0.00 0.00 0.00 99 1016.0
20260905054601 73 307 0.0 0.0 0.00 0.00 0.00 99 1016.1
20260905054057 73 307 0.0 0.0 0.00 0.00 0.00 99 1016.0
20260905053555 73 307 0.0 0.0 0.00 0.00 0.00 99 1016.2
20260905053052 73 279 0.0 0.9 0.00 0.00 0.00 99 1016.4
20260905052551 73 312 0.0 0.0 0.00 0.00 0.00 99 1016.4
20260905052045 73 312 0.0 0.0 0.00 0.00 0.00 99 1016.3
20260905051541 73 312 0.0 0.0 0.00 0.00 0.00 99 1016.3
20260905051038 73 312 0.0 0.0 0.00 0.00 0.00 99 1016.4
20260905050533 73 312 0.0 0.0 0.00 0.00 0.00 99 1016.4
20260905050031 73 312 0.0 0.0 0.00 0.00 0.00 99 1016.2
20260905045525 73 313 0.0 0.0 0.00 0.00 0.00 99 1016.4
20260905045015 73 313 0.0 0.0 0.00 0.00 0.00 99 1016.4
20260905044514 73 312 0.0 0.0 0.00 0.00 0.00 99 1016.8
20260905044009 73 313 0.0 0.0 0.00 0.00 0.00 99 1016.6
20260905043508 73 313 0.0 0.0 0.00 0.00 0.00 99 1016.8
20260905043003 73 313 0.0 0.0 0.00 0.00 0.00 99 1016.5
20260905042456 73 313 0.0 0.0 0.00 0.00 0.00 99 1016.6
20260905041952 73 313 0.0 0.0 0.00 0.00 0.00 99 1016.5
20260905041447 74 311 0.0 0.0 0.00 0.00 0.00 99 1016.5
20260905040942 74 321 0.0 0.0 0.00 0.00 0.00 99 1016.5
20260905040441 74 320 0.0 0.0 0.00 0.00 0.00 99 1016.3
20260905035936 74 321 0.0 0.0 0.00 0.00 0.00 99 1016.2
20260905035431 74 320 0.0 0.0 0.00 0.00 0.00 99 1016.4
20260905034928 74 323 0.0 0.0 0.00 0.00 0.00 99 1016.5
20260905034423 74 323 0.0 0.0 0.00 0.00 0.00 99 1016.6
20260905033922 74 323 0.0 0.0 0.00 0.00 0.00 99 1016.5
20260905033416 74 323 0.0 0.0 0.00 0.00 0.00 99 1016.7
20260905032916 74 323 0.0 0.0 0.00 0.00 0.00 99 1016.5
20260905032406 74 323 0.0 0.0 0.00 0.00 0.00 99 1016.6
20260905031900 74 323 0.0 0.0 0.00 0.00 0.00 99 1016.6
20260905031351 75 323 0.0 0.0 0.00 0.00 0.00 99 1016.6
20260905030846 75 323 0.0 0.0 0.00 0.00 0.00 99 1016.6
20260905030342 75 323 0.0 0.0 0.00 0.00 0.00 99 1016.6
20260905025840 75 323 0.0 0.0 0.00 0.00 0.00 99 1016.5
20260905025335 75 323 0.0 0.0 0.00 0.00 0.00 99 1016.4
20260905024827 75 323 0.0 0.0 0.00 0.00 0.00 99 1016.4
20260905024322 75 323 0.0 0.0 0.00 0.00 0.00 99 1016.5
20260905023817 75 323 0.0 0.0 0.00 0.00 0.00 99 1016.6
20260905023313 75 323 0.0 0.0 0.00 0.00 0.00 99 1016.5
20260905022811 75 323 0.0 0.0 0.00 0.00 0.00 99 1016.7
20260905022307 75 323 0.0 0.0 0.00 0.00 0.00 99 1016.7
20260905021806 75 323 0.0 0.0 0.00 0.00 0.00 99 1016.4
20260905021301 75 323 0.0 0.0 0.00 0.00 0.00 99 1016.5
20260905020756 76 323 0.0 0.0 0.00 0.00 0.00 99 1016.6
20260905020251 76 323 0.0 0.0 0.00 0.00 0.00 99 1016.3
20260905015750 76 323 0.0 0.0 0.00 0.00 0.00 99 1016.4
20260905015245 76 323 0.0 0.0 0.00 0.00 0.00 99 1016.3
20260905014743 76 323 0.0 0.0 0.00 0.00 0.00 99 1016.5
20260905014239 76 323 0.0 0.0 0.00 0.00 0.00 99 1016.4
20260905013734 76 323 0.0 0.0 0.00 0.00 0.00 99 1016.2
20260905013225 76 323 0.0 0.0 0.00 0.00 0.00 99 1016.2
20260905012720 77 323 0.0 0.0 0.00 0.00 0.00 99 1016.2
20260905012215 77 323 0.0 0.0 0.00 0.00 0.00 99 1016.2
20260905011712 77 323 0.0 0.0 0.00 0.00 0.00 99 1016.2
20260905011208 77 323 0.0 0.0 0.00 0.00 0.00 99 1016.2
20260905010707 77 323 0.0 0.0 0.00 0.00 0.00 99 1016.2
20260905010203 77 323 0.0 0.0 0.00 0.00 0.00 99 1016.0
20260905005659 77 323 0.0 0.0 0.00 0.00 0.00 99 1016.1
20260905005154 78 323 0.0 0.0 0.00 0.00 0.00 99 1016.1
20260905004649 78 323 0.0 0.0 0.00 0.00 0.00 99 1016.3
20260905004144 78 323 0.0 0.0 0.00 0.00 0.00 98 1016.1
20260905003639 78 323 0.0 0.0 0.00 0.00 0.00 98 1016.1
20260905003135 78 323 0.0 0.0 0.00 0.00 0.00 98 1015.8
20260905002630 78 323 0.0 0.0 0.00 0.00 0.00 98 1015.8
20260905002125 78 323 0.0 0.0 0.00 0.00 0.00 98 1015.7
20260905001621 79 323 0.0 0.0 0.00 0.00 0.00 98 1015.8
20260905001114 79 323 0.0 0.0 0.00 0.00 0.00 97 1015.8
20260905000609 79 323 0.0 0.0 0.00 0.00 0.00 97 1015.7
20260905000106 79 323 0.0 0.0 0.00 0.00 0.00 97 1015.6
20260904235600 79 323 0.0 0.0 0.00 0.00 0.00 96 1015.5
20260904235059 79 323 0.0 0.0 0.00 0.00 0.00 96 1015.7
20260904234554 80 323 0.0 0.0 0.00 0.00 0.00 96 1015.6
20260904234051 80 323 0.0 0.0 0.00 0.00 0.00 96 1015.8
20260904233550 80 323 0.0 0.0 0.00 0.00 0.00 96 1015.7
20260904233047 80 323 0.0 0.0 0.00 0.00 0.00 96 1015.6
20260904232543 80 330 0.0 0.0 0.00 0.00 0.00 96 1015.3
20260904232039 80 323 0.0 0.0 0.00 0.00 0.00 96 1015.4
20260904231535 80 335 0.0 0.9 0.00 0.00 0.00 96 1015.4
20260904231030 80 225 0.9 0.9 0.00 0.00 0.00 96 1015.3
20260904230529 80 318 0.0 0.0 0.00 0.00 0.00 95 1015.6
20260904230025 80 319 0.0 0.9 0.00 0.00 0.00 95 1015.3
20260904225522 80 320 0.0 0.9 0.00 0.00 0.00 95 1014.7
20260904225021 80 307 0.0 0.0 0.00 0.00 0.00 95 1014.5
20260904224517 80 302 0.0 0.0 0.00 0.00 0.00 94 1014.4
20260904224017 81 301 0.0 0.0 0.00 0.00 0.00 94 1014.9
20260904223516 81 300 0.0 0.0 0.00 0.00 0.00 94 1014.6
20260904223012 81 300 0.0 0.0 0.00 0.00 0.00 93 1014.9
20260904222507 81 285 0.0 0.0 0.00 0.00 0.00 93 1015.0
20260904222002 81 310 0.0 0.0 0.00 0.00 0.00 92 1015.3
20260904221456 82 310 0.0 0.0 0.00 0.00 0.00 92 1015.1
20260904220951 82 310 0.0 0.0 0.00 0.00 0.00 91 1015.4
20260904220451 82 310 0.0 0.0 0.00 0.00 0.00 91 1015.7
20260904215946 82 310 0.0 0.0 0.00 0.00 0.00 90 1015.7
20260904215442 83 310 0.0 0.0 0.00 0.00 0.00 90 1016.0
20260904214937 83 310 0.0 0.0 0.00 0.00 0.00 89 1016.0
20260904214433 84 310 0.0 0.0 0.00 0.00 0.00 86 1015.8
20260904213932 84 310 0.0 0.0 0.00 0.00 0.00 86 1015.8
20260904213426 85 310 0.0 0.0 0.00 0.00 0.00 85 1016.0
20260904212923 85 331 0.0 0.0 0.00 0.00 0.00 84 1016.2
20260904212422 85 332 0.0 0.0 0.00 0.00 0.00 82 1016.3
20260904211917 85 328 0.0 0.0 0.00 0.00 0.00 83 1016.3
20260904211412 85 329 0.0 0.0 0.00 0.00 0.00 81 1016.0
20260904210908 86 320 0.0 0.9 0.00 0.00 0.00 79 1016.0
20260904210407 86 281 0.0 0.9 0.00 0.00 0.00 77 1016.0
20260904205903 87 320 0.0 0.0 0.00 0.00 0.00 77 1016.2
20260904205358 87 311 0.0 0.0 0.00 0.00 0.00 77 1016.2
20260904204855 87 310 0.0 1.7 0.00 0.00 0.00 74 1016.1
20260904204351 86 276 0.0 0.9 0.00 0.00 0.00 74 1016.2
20260904203847 86 301 0.0 1.7 0.00 0.00 0.00 76 1016.4
20260904203343 85 289 0.0 0.9 0.00 0.00 0.00 83 1016.5
20260904202838 85 329 0.0 0.0 0.00 0.00 0.00 82 1016.5
20260904202334 85 312 0.0 0.9 0.00 0.00 0.00 79 1016.4
20260904201830 86 314 0.0 0.0 0.00 0.00 0.00 80 1016.4
20260904201330 86 312 0.0 0.0 0.00 0.00 0.00 80 1016.3
20260904200826 87 313 0.0 0.0 0.00 0.00 0.00 79 1016.6
20260904200324 87 325 0.0 0.0 0.00 0.00 0.00 76 1016.6
20260904195819 87 305 0.0 0.0 0.00 0.00 0.00 77 1016.4
20260904195317 86 343 0.0 1.7 0.00 0.00 0.00 76 1016.6
20260904194812 86 347 0.0 0.0 0.00 0.00 0.00 79 1016.8
20260904194311 85 296 0.0 0.0 0.00 0.00 0.00 81 1017.1
20260904193806 85 346 0.0 0.0 0.00 0.00 0.00 81 1016.8
20260904193302 86 344 0.0 0.9 0.00 0.00 0.00 78 1017.2
20260904192757 86 64 0.0 0.0 0.00 0.00 0.00 75 1016.7
20260904192252 86 308 0.0 0.0 0.00 0.00 0.00 75 1016.7
20260904191749 86 342 0.9 0.9 0.00 0.00 0.00 78 1017.2
20260904191245 86 315 0.0 0.0 0.00 0.00 0.00 81 1017.1
20260904190741 84 325 0.0 0.0 0.00 0.00 0.00 81 1017.5
20260904190237 84 319 0.0 0.9 0.00 0.00 0.00 82 1017.6
20260904185733 83 331 0.0 0.0 0.00 0.00 0.00 84 1017.8
20260904185228 83 346 0.9 0.9 0.00 0.00 0.00 84 1017.7
20260904184727 82 336 0.0 0.0 0.00 0.00 0.00 87 1017.4
20260904184223 82 335 0.0 0.0 0.00 0.00 0.00 86 1017.4
20260904183718 82 323 0.0 0.9 0.00 0.00 0.00 87 1017.3
20260904183213 81 348 0.0 0.0 0.00 0.00 0.00 89 1017.3
20260904182708 82 326 0.0 0.0 0.00 0.00 0.00 88 1017.8
20260904182203 82 327 0.0 0.0 0.00 0.00 0.00 88 1017.6
20260904181659 82 327 0.0 0.0 0.00 0.00 0.00 87 1017.8
20260904181158 82 327 0.0 0.0 0.00 0.00 0.00 86 1017.6
20260904180654 83 328 0.0 0.0 0.00 0.00 0.00 85 1017.6
20260904180149 83 317 0.0 0.0 0.00 0.00 0.00 83 1017.4
20260904175648 84 316 0.0 0.0 0.00 0.00 0.00 80 1017.4
20260904175147 84 289 0.0 0.9 0.00 0.00 0.00 79 1017.8
20260904174641 85 280 0.9 1.7 0.00 0.00 0.00 78 1017.4
20260904174137 86 203 0.9 1.7 0.00 0.00 0.00 77 1017.8
20260904173633 87 312 0.0 0.9 0.00 0.00 0.00 77 1018.0
20260904173122 88 304 1.7 1.7 0.00 0.00 0.00 76 1017.8
20260904172619 88 319 0.0 0.0 0.00 0.00 0.00 79 1017.9
20260904172118 89 319 0.0 0.0 0.00 0.00 0.00 75 1017.7
20260904171613 91 288 0.0 0.9 0.00 0.00 0.00 73 1017.5
20260904171109 93 286 0.0 1.7 0.00 0.00 0.00 68 1017.7
20260904170604 95 310 0.0 1.7 0.00 0.00 0.00 62 1017.8
20260904170100 93 321 0.0 0.0 0.00 0.00 0.00 65 1017.7
20260904165558 93 346 0.9 1.7 0.00 0.00 0.00 67 1017.8
20260904165053 94 308 0.0 1.7 0.00 0.00 0.00 68 1017.7
20260904164548 93 319 0.0 0.0 0.00 0.00 0.00 66 1017.8
20260904164043 94 353 0.9 1.7 0.00 0.00 0.00 64 1017.9
20260904163543 93 319 0.0 0.9 0.00 0.00 0.00 64 1017.7
20260904163038 93 354 0.0 1.7 0.00 0.00 0.00 65 1017.9
20260904162533 92 346 1.7 1.7 0.00 0.00 0.00 66 1017.8
20260904162028 92 344 0.0 0.0 0.00 0.00 0.00 65 1018.0
20260904161523 93 287 0.0 1.7 0.00 0.00 0.00 63 1017.9
20260904161018 93 301 0.0 0.9 0.00 0.00 0.00 69 1017.8
20260904160513 93 204 0.0 0.9 0.00 0.00 0.00 67 1017.9
20260904160009 93 294 0.0 0.9 0.00 0.00 0.00 64 1018.0
20260904155503 93 134 1.7 1.7 0.00 0.00 0.00 64 1017.9
20260904155002 92 301 0.0 0.9 0.00 0.00 0.00 71 1018.0
20260904154456 91 346 0.0 0.0 0.00 0.00 0.00 70 1017.9
20260904153951 90 4 0.0 0.9 0.00 0.00 0.00 71 1017.9
20260904153446 90 342 0.0 0.9 0.00 0.00 0.00 73 1018.1
20260904152943 88 290 0.0 0.0 0.00 0.00 0.00 75 1018.2
20260904152438 89 342 0.0 0.0 0.00 0.00 0.00 76 1017.9
20260904151938 88 316 0.0 0.0 0.00 0.00 0.00 73 1018.4
20260904151433 87 338 0.0 0.0 0.00 0.00 0.00 77 1018.0
20260904150927 86 333 0.0 0.0 0.00 0.00 0.00 80 1018.1
20260904150422 86 331 0.0 0.9 0.00 0.00 0.00 78 1018.3
20260904145920 86 188 1.7 1.7 0.00 0.00 0.00 78 1018.1
20260904145417 85 351 0.0 0.0 0.00 0.00 0.00 79 1018.4
20260904144912 85 353 0.0 1.7 0.00 0.00 0.00 78 1018.3
20260904144408 85 307 0.0 0.9 0.00 0.00 0.00 79 1018.3
20260904143903 84 311 0.0 0.9 0.00 0.00 0.00 84 1018.1
20260904143400 83 314 0.0 1.7 0.00 0.00 0.00 84 1018.2
20260904142856 82 342 0.0 0.0 0.00 0.00 0.00 87 1018.1
20260904142351 82 0 0.0 0.0 0.00 0.00 0.00 85 1018.1
20260904141845 82 335 0.0 0.0 0.00 0.00 0.00 87 1018.2
20260904141341 81 353 0.9 0.9 0.00 0.00 0.00 87 1018.3
20260904140837 81 359 0.0 0.0 0.00 0.00 0.00 87 1018.3
20260904140332 80 339 0.0 0.9 0.00 0.00 0.00 87 1018.1
20260904135831 80 359 0.0 0.9 0.00 0.00 0.00 90 1018.0
20260904135326 80 318 0.0 0.0 0.00 0.00 0.00 92 1018.0
20260904134822 79 318 0.0 0.0 0.00 0.00 0.00 91 1018.2
20260904134321 79 287 0.0 0.9 0.00 0.00 0.00 91 1018.3
20260904133816 79 272 0.0 0.0 0.00 0.00 0.00 89 1018.3
20260904133312 78 280 0.0 0.0 0.00 0.00 0.00 90 1018.1
20260904132811 78 298 0.0 0.9 0.00 0.00 0.00 93 1018.3
20260904132306 77 268 0.0 1.7 0.00 0.00 0.00 93 1018.5
20260904131806 76 187 0.9 1.7 0.00 0.00 0.00 98 1018.6
20260904131302 76 279 0.0 0.0 0.00 0.00 0.00 99 1018.6
20260904130756 75 280 0.0 0.0 0.00 0.00 0.00 99 1018.6
20260904130256 75 303 0.0 0.0 0.00 0.00 0.00 99 1018.6
20260904125751 75 302 0.0 0.0 0.00 0.00 0.00 99 1018.8
20260904125247 74 303 0.0 0.0 0.00 0.00 0.00 99 1018.8
20260904124747 74 303 0.0 0.0 0.00 0.00 0.00 99 1018.9
20260904124243 74 301 0.0 0.0 0.00 0.00 0.00 99 1018.9
20260904123743 74 301 0.0 0.0 0.00 0.00 0.00 99 1018.8
20260904123238 73 332 0.0 0.0 0.00 0.00 0.00 99 1019.0
20260904122733 73 332 0.0 0.0 0.00 0.00 0.00 99 1018.9
20260904122227 73 332 0.0 0.0 0.00 0.00 0.00 99 1018.7
20260904121723 73 332 0.0 0.0 0.00 0.00 0.00 99 1018.7
20260904121219 73 332 0.0 0.0 0.00 0.00 0.00 99 1018.7
20260904120715 72 332 0.0 0.0 0.00 0.00 0.00 99 1018.7
20260904120211 72 332 0.0 0.0 0.00 0.00 0.00 99 1018.8
20260904115707 72 333 0.0 0.0 0.00 0.00 0.00 99 1018.7